When you browse on this site, cookies collect data to enhance your experience and personalize the content and advertising you see.
Visit our Privacy Policy to learn more. By continuing to use the site, you agree to this use of cookies and data.
  • In Sweden
  • List of Countries
  • For 7 days
  • Water Temperature
  • Weather Map
  • Weather Widgets
  • user-avatar
    Login

    Hourly Weather Dobra Nadiya

    Today, 18 November, Monday

    Time Temperature Precipitation Wind Pressure Humidity
    00:00 +3°C° 0 mm 3 mps 766 mmHg 92%
    01:00 +3°C° 0 mm 3 mps 766 mmHg 92%
    02:00 +3°C° 0 mm 3 mps 766 mmHg 93%
    03:00 +2°C° 0 mm 3 mps 766 mmHg 93%
    04:00 +2°C° 0 mm 3 mps 765 mmHg 94%
    05:00 +2°C° 0 mm 3 mps 765 mmHg 94%
    06:00 +2°C° 0 mm 3 mps 765 mmHg 94%
    07:00 +3°C° 0 mm 3 mps 765 mmHg 93%
    08:00 +4°C° 0 mm 2 mps 765 mmHg 93%
    09:00 +5°C° 0 mm 3 mps 765 mmHg 86%
    10:00 +8°C° 0 mm 3 mps 765 mmHg 79%
    11:00 +10°C° 0 mm 3 mps 765 mmHg 72%
    12:00 +12°C° 0 mm 2 mps 765 mmHg 69%
    13:00 +13°C° 0 mm 2 mps 765 mmHg 67%
    14:00 +13°C° 0 mm 2 mps 765 mmHg 64%
    15:00 +12°C° 0 mm 2 mps 765 mmHg 70%
    16:00 +11°C° 0 mm 1 mps 765 mmHg 77%
    17:00 +10°C° 0 mm 1 mps 765 mmHg 83%
    18:00 +9°C° 0 mm 1 mps 765 mmHg 85%
    19:00 +8°C° 0 mm 1 mps 765 mmHg 87%
    20:00 +8°C° 0 mm 1 mps 765 mmHg 89%
    21:00 +8°C° 0 mm 1 mps 766 mmHg 89%
    22:00 +7°C° 0 mm 1 mps 766 mmHg 90%
    23:00 +7°C° 0 mm 1 mps 766 mmHg 91%

    Tomorrow, 19 November, Tuesday

    Time Temperature Precipitation Wind Pressure Humidity
    00:00 +7°C° 0 mm 1 mps 766 mmHg 91%
    01:00 +7°C° 0 mm 1 mps 766 mmHg 92%
    02:00 +7°C° 0 mm 1 mps 766 mmHg 92%
    03:00 +7°C° 0 mm 1 mps 766 mmHg 92%
    04:00 +7°C° 0 mm 1 mps 766 mmHg 93%
    05:00 +7°C° 0 mm 1 mps 766 mmHg 93%
    06:00 +7°C° 0 mm 1 mps 767 mmHg 92%
    07:00 +7°C° 0 mm 1 mps 767 mmHg 92%
    08:00 +7°C° 0 mm 1 mps 767 mmHg 92%
    09:00 +8°C° 0 mm 1 mps 767 mmHg 85%
    10:00 +10°C° 0 mm 1 mps 767 mmHg 78%
    11:00 +11°C° 0 mm 1 mps 767 mmHg 71%
    12:00 +12°C° 0 mm 1 mps 767 mmHg 68%
    13:00 +13°C° 0 mm 1 mps 767 mmHg 65%
    14:00 +13°C° 0 mm 1 mps 767 mmHg 62%
    15:00 +12°C° 0 mm 1 mps 767 mmHg 66%
    16:00 +11°C° 0 mm 1 mps 767 mmHg 71%
    17:00 +10°C° 0 mm 1 mps 766 mmHg 75%
    18:00 +10°C° 0 mm 1 mps 766 mmHg 76%
    19:00 +10°C° 0 mm 1 mps 767 mmHg 77%
    20:00 +9°C° 0 mm 1 mps 767 mmHg 78%
    21:00 +9°C° 0 mm 1 mps 767 mmHg 78%
    22:00 +8°C° 0 mm 2 mps 767 mmHg 78%
    23:00 +7°C° 0 mm 2 mps 766 mmHg 78%

    Day after tomorrow, 20 November, Wednesday

    Time Temperature Precipitation Wind Pressure Humidity
    00:00 +7°C° 0 mm 2 mps 766 mmHg 77%
    01:00 +7°C° 0 mm 2 mps 767 mmHg 76%
    02:00 +7°C° 0 mm 2 mps 767 mmHg 75%
    03:00 +6°C° 0 mm 2 mps 766 mmHg 76%
    04:00 +6°C° 0 mm 2 mps 766 mmHg 76%
    05:00 +6°C° 0 mm 2 mps 766 mmHg 76%
    06:00 +5°C° 0 mm 3 mps 766 mmHg 76%
    07:00 +5°C° 0 mm 3 mps 766 mmHg 75%
    08:00 +5°C° 0 mm 3 mps 766 mmHg 74%
    09:00 +7°C° 0 mm 3 mps 766 mmHg 69%
    10:00 +8°C° 0 mm 3 mps 766 mmHg 63%
    11:00 +10°C° 0 mm 3 mps 766 mmHg 58%
    12:00 +10°C° 0 mm 3 mps 766 mmHg 56%
    13:00 +11°C° 0 mm 3 mps 766 mmHg 54%
    14:00 +12°C° 0 mm 3 mps 765 mmHg 52%
    15:00 +10°C° 0 mm 3 mps 765 mmHg 57%
    16:00 +8°C° 0 mm 4 mps 765 mmHg 61%
    17:00 +7°C° 0 mm 4 mps 765 mmHg 66%
    18:00 +7°C° 0 mm 4 mps 765 mmHg 70%
    19:00 +6°C° 0 mm 4 mps 766 mmHg 74%
    20:00 +6°C° 0 mm 4 mps 766 mmHg 77%
    21:00 +6°C° 0 mm 4 mps 766 mmHg 79%
    22:00 +5°C° 0 mm 4 mps 766 mmHg 81%
    23:00 +5°C° 0 mm 4 mps 766 mmHg 82%

    21 November, Thursday

    Time Temperature Precipitation Wind Pressure Humidity
    00:00 +5°C° 0 mm 5 mps 766 mmHg 77%
    01:00 +3°C° 0 mm 5 mps 766 mmHg 72%
    02:00 +3°C° 0 mm 6 mps 766 mmHg 67%
    03:00 +3°C° 0 mm 6 mps 766 mmHg 69%
    04:00 +2°C° 0 mm 7 mps 766 mmHg 72%
    05:00 +2°C° 0 mm 7 mps 766 mmHg 74%
    06:00 +2°C° 0 mm 8 mps 766 mmHg 73%
    07:00 +4°C° 0 mm 8 mps 767 mmHg 71%
    08:00 +3°C° 0 mm 9 mps 767 mmHg 69%
    09:00 +3°C° 0 mm 9 mps 767 mmHg 67%
    10:00 +3°C° 0 mm 9 mps 768 mmHg 65%
    11:00 +3°C° 0 mm 9 mps 768 mmHg 62%
    12:00 +4°C° 0 mm 8 mps 768 mmHg 61%
    13:00 +2°C° 0 mm 8 mps 768 mmHg 59%
    14:00 +2°C° 0 mm 8 mps 768 mmHg 57%
    15:00 +3°C° 0 mm 7 mps 768 mmHg 57%
    16:00 +2°C° 0 mm 7 mps 768 mmHg 57%
    17:00 +1°C° 0 mm 6 mps 768 mmHg 57%
    18:00 +1°C° 0 mm 6 mps 769 mmHg 57%
    19:00 -1°C° 0 mm 6 mps 769 mmHg 56%
    20:00 -2°C° 0 mm 6 mps 769 mmHg 56%
    21:00 -2°C° 0 mm 7 mps 769 mmHg 57%
    22:00 -3°C° 0 mm 7 mps 769 mmHg 58%
    23:00 -3°C° 0 mm 7 mps 769 mmHg 59%

    22 November, Friday

    Time Temperature Precipitation Wind Pressure Humidity
    00:00 -4°C° 0 mm 7 mps 770 mmHg 62%
    01:00 -4°C° 0 mm 7 mps 770 mmHg 64%
    02:00 -4°C° 0 mm 7 mps 770 mmHg 66%
    03:00 -4°C° 0 mm 7 mps 770 mmHg 66%
    04:00 -6°C° 0 mm 7 mps 770 mmHg 66%
    05:00 -6°C° 0 mm 7 mps 769 mmHg 66%
    06:00 -6°C° 0 mm 7 mps 770 mmHg 64%
    07:00 -6°C° 0 mm 7 mps 770 mmHg 63%
    08:00 -7°C° 0 mm 7 mps 770 mmHg 62%
    09:00 -6°C° 0 mm 7 mps 770 mmHg 61%
    10:00 -4°C° 0 mm 7 mps 770 mmHg 60%
    11:00 -3°C° 0 mm 7 mps 770 mmHg 59%
    12:00 -3°C° 0 mm 7 mps 769 mmHg 60%
    13:00 -3°C° 0 mm 7 mps 769 mmHg 61%
    14:00 -2°C° 0 mm 7 mps 769 mmHg 62%
    15:00 -2°C° 0 mm 7 mps 769 mmHg 64%
    16:00 -2°C° 0 mm 7 mps 768 mmHg 65%
    17:00 -2°C° 0 mm 7 mps 768 mmHg 66%
    18:00 -2°C° 0 mm 7 mps 768 mmHg 66%
    19:00 -2°C° 0 mm 7 mps 768 mmHg 66%
    20:00 -1°C° 0 mm 7 mps 768 mmHg 66%
    21:00 -1°C° 0 mm 6 mps 768 mmHg 65%
    22:00 -1°C° 0 mm 6 mps 768 mmHg 64%
    23:00 -1°C° 0 mm 6 mps 768 mmHg 63%

    23 November, Saturday

    Time Temperature Precipitation Wind Pressure Humidity
    00:00 -1°C° 0 mm 6 mps 768 mmHg 64%
    01:00 -1°C° 0 mm 6 mps 768 mmHg 65%
    02:00 -1°C° 0 mm 6 mps 768 mmHg 65%
    03:00 -2°C° 0 mm 6 mps 768 mmHg 67%
    04:00 -2°C° 0 mm 6 mps 768 mmHg 69%
    05:00 -2°C° 0 mm 6 mps 768 mmHg 71%
    06:00 -3°C° 0 mm 6 mps 768 mmHg 72%
    07:00 -3°C° 0 mm 6 mps 768 mmHg 73%
    08:00 -3°C° 0 mm 6 mps 768 mmHg 73%
    09:00 -2°C° 0 mm 6 mps 768 mmHg 70%
    10:00 -2°C° 0 mm 6 mps 768 mmHg 67%
    11:00 -1°C° 0 mm 6 mps 768 mmHg 64%
    12:00 -1°C° 0 mm 6 mps 768 mmHg 64%
    13:00 +1°C° 0 mm 5 mps 767 mmHg 63%
    14:00 +1°C° 0 mm 5 mps 767 mmHg 63%
    15:00 0°C° 0 mm 5 mps 767 mmHg 65%
    16:00 0°C° 0 mm 4 mps 767 mmHg 67%
    17:00 -1°C° 0 mm 4 mps 767 mmHg 69%
    18:00 -1°C° 0 mm 4 mps 767 mmHg 68%
    19:00 0°C° 0 mm 3 mps 767 mmHg 68%
    20:00 +1°C° 0 mm 3 mps 767 mmHg 68%
    21:00 0°C° 0 mm 3 mps 767 mmHg 69%
    22:00 -1°C° 0 mm 3 mps 767 mmHg 71%
    23:00 -1°C° 0 mm 3 mps 767 mmHg 73%
    Show more